Time,TemperatureF,DewpointF,PressureIn,WindDirection,WindDirectionDegrees,WindSpeedMPH,WindSpeedGustMPH,Humidity,HourlyPrecipIn,Conditions,Clouds,dailyrainin,SoftwareType,DateUTC
2013-04-04 01:01:00,34.0,28.0,-100.00,NNE,25,3.0,4.0,78,-99.99,,,0.00,,2013-04-04 07:01:00,
2013-04-04 01:12:00,35.0,28.0,-100.00,NNE,30,3.0,7.0,75,-99.99,,,0.00,,2013-04-04 07:12:00,
2013-04-04 01:22:00,35.0,28.0,-100.00,NNE,30,3.0,7.0,75,-99.99,,,0.00,,2013-04-04 07:22:00,
2013-04-04 01:32:00,34.0,28.0,-100.00,NNE,25,3.0,4.0,78,-99.99,,,0.00,,2013-04-04 07:32:00,
2013-04-04 01:42:00,34.0,28.0,-100.00,NNE,25,3.0,4.0,78,-99.99,,,0.00,,2013-04-04 07:42:00,
2013-04-04 01:52:00,34.0,28.0,-100.00,NNE,25,3.0,4.0,78,-99.99,,,0.00,,2013-04-04 07:52:00,
2013-04-04 02:02:00,33.0,28.0,-100.00,WNW,285,0.0,3.0,80,-99.99,,,0.00,,2013-04-04 08:02:00,
2013-04-04 02:12:00,33.0,28.0,-100.00,North,-999,0.0,0.0,81,-99.99,,,0.00,,2013-04-04 08:12:00,
2013-04-04 02:22:00,33.0,28.0,-100.00,North,-999,0.0,0.0,81,-99.99,,,0.00,,2013-04-04 08:22:00,
2013-04-04 02:32:00,33.0,28.0,-100.00,WNW,285,0.0,3.0,80,-99.99,,,0.00,,2013-04-04 08:32:00,
2013-04-04 02:43:00,33.0,28.0,-100.00,WNW,285,0.0,3.0,80,-99.99,,,0.00,,2013-04-04 08:43:00,
2013-04-04 02:52:00,33.0,28.0,-100.00,WNW,285,0.0,3.0,80,-99.99,,,0.00,,2013-04-04 08:52:00,
2013-04-04 03:12:00,32.0,27.0,-100.00,North,0,1.0,3.0,84,-99.99,,,0.00,,2013-04-04 09:12:00,
2013-04-04 03:22:00,32.0,27.0,-100.00,North,0,1.0,3.0,84,-99.99,,,0.00,,2013-04-04 09:22:00,
2013-04-04 03:33:00,31.0,27.0,-100.00,SSW,195,2.0,4.0,87,-99.99,,,0.00,,2013-04-04 09:33:00,
2013-04-04 03:43:00,31.0,27.0,-100.00,SSW,195,2.0,4.0,87,-99.99,,,0.00,,2013-04-04 09:43:00,
2013-04-04 03:52:00,31.0,27.0,-100.00,SSW,195,2.0,4.0,87,-99.99,,,0.00,,2013-04-04 09:52:00,
2013-04-04 04:02:00,30.0,27.0,-100.00,North,-999,0.0,0.0,89,-99.99,,,0.00,,2013-04-04 10:02:00,
2013-04-04 04:03:00,31.0,27.0,-100.00,SSW,195,2.0,4.0,87,-99.99,,,0.00,,2013-04-04 10:03:00,
2013-04-04 04:12:00,31.0,27.0,-100.00,NNW,345,0.0,1.0,88,-99.99,,,0.00,,2013-04-04 10:12:00,
2013-04-04 04:23:00,31.0,27.0,-100.00,NNW,345,0.0,1.0,88,-99.99,,,0.00,,2013-04-04 10:23:00,
2013-04-04 04:33:00,30.0,27.0,-100.00,North,-999,0.0,0.0,89,-99.99,,,0.00,,2013-04-04 10:33:00,
2013-04-04 04:43:00,30.0,27.0,-100.00,North,-999,0.0,0.0,89,-99.99,,,0.00,,2013-04-04 10:43:00,
2013-04-04 04:53:00,30.0,27.0,-100.00,North,-999,0.0,0.0,89,-99.99,,,0.00,,2013-04-04 10:53:00,
2013-04-04 05:12:00,29.0,26.0,-100.00,NNE,15,1.0,1.0,89,-99.99,,,0.00,,2013-04-04 11:12:00,
2013-04-04 05:22:00,29.0,26.0,-100.00,NNE,15,1.0,1.0,89,-99.99,,,0.00,,2013-04-04 11:22:00,
2013-04-04 05:32:00,29.0,26.0,-100.00,South,175,1.0,2.0,90,-99.99,,,0.00,,2013-04-04 11:32:00,
2013-04-04 05:43:00,29.0,26.0,-100.00,South,175,1.0,2.0,90,-99.99,,,0.00,,2013-04-04 11:43:00,
2013-04-04 05:52:00,29.0,26.0,-100.00,South,175,1.0,2.0,90,-99.99,,,0.00,,2013-04-04 11:52:00,
2013-04-04 06:02:00,29.0,26.0,-100.00,South,175,1.0,2.0,90,-99.99,,,0.00,,2013-04-04 12:02:00,
2013-04-04 06:12:00,29.0,27.0,-100.00,ENE,60,0.0,2.0,91,-99.99,,,0.00,,2013-04-04 12:12:00,
2013-04-04 06:22:00,29.0,27.0,-100.00,ENE,60,0.0,2.0,91,-99.99,,,0.00,,2013-04-04 12:22:00,
2013-04-04 06:32:00,29.0,27.0,-100.00,South,190,0.0,2.0,91,-99.99,,,0.00,,2013-04-04 12:32:00,
2013-04-04 06:43:00,29.0,27.0,-100.00,South,190,0.0,2.0,91,-99.99,,,0.00,,2013-04-04 12:43:00,
2013-04-04 06:52:00,29.0,27.0,-100.00,South,190,0.0,2.0,91,-99.99,,,0.00,,2013-04-04 12:52:00,
2013-04-04 07:01:00,28.0,26.0,-100.00,NE,35,1.0,2.0,92,-99.99,,,0.00,,2013-04-04 13:01:00,
2013-04-04 07:32:00,28.0,26.0,-100.00,NE,35,1.0,2.0,92,-99.99,,,0.00,,2013-04-04 13:32:00,
2013-04-04 07:42:00,28.0,26.0,-100.00,NE,35,1.0,2.0,92,-99.99,,,0.00,,2013-04-04 13:42:00,
2013-04-04 07:52:00,28.0,26.0,-100.00,NE,35,1.0,2.0,92,-99.99,,,0.00,,2013-04-04 13:52:00,
2013-04-04 08:02:00,29.0,27.0,-100.00,SE,140,1.0,1.0,93,-99.99,,,0.00,,2013-04-04 14:02:00,
2013-04-04 08:12:00,28.0,26.0,-100.00,SSW,210,0.0,3.0,92,-99.99,,,0.00,,2013-04-04 14:12:00,
2013-04-04 08:22:00,28.0,26.0,-100.00,SSW,210,0.0,3.0,92,-99.99,,,0.00,,2013-04-04 14:22:00,
2013-04-04 08:32:00,29.0,27.0,-100.00,SE,140,1.0,1.0,93,-99.99,,,0.00,,2013-04-04 14:32:00,
2013-04-04 08:43:00,29.0,27.0,-100.00,SE,140,1.0,1.0,93,-99.99,,,0.00,,2013-04-04 14:43:00,
2013-04-04 08:52:00,29.0,27.0,-100.00,SE,140,1.0,1.0,93,-99.99,,,0.00,,2013-04-04 14:52:00,
2013-04-04 09:02:00,31.0,29.0,-100.00,South,190,1.0,4.0,90,-99.99,,,0.00,,2013-04-04 15:02:00,
2013-04-04 09:12:00,31.0,29.0,-100.00,East,80,0.0,2.0,91,-99.99,,,0.00,,2013-04-04 15:12:00,
2013-04-04 09:22:00,31.0,29.0,-100.00,East,80,0.0,2.0,91,-99.99,,,0.00,,2013-04-04 15:22:00,
2013-04-04 09:33:00,31.0,29.0,-100.00,South,190,1.0,4.0,90,-99.99,,,0.00,,2013-04-04 15:33:00,
2013-04-04 09:43:00,31.0,29.0,-100.00,South,190,1.0,4.0,90,-99.99,,,0.00,,2013-04-04 15:43:00,
2013-04-04 09:53:00,31.0,29.0,-100.00,South,190,1.0,4.0,90,-99.99,,,0.00,,2013-04-04 15:53:00,
2013-04-04 10:02:00,36.0,31.0,-100.00,North,355,0.0,1.0,82,-99.99,,,0.00,,2013-04-04 16:02:00,
2013-04-04 10:12:00,32.0,29.0,-100.00,SW,235,1.0,3.0,88,-99.99,,,0.00,,2013-04-04 16:12:00,
2013-04-04 10:23:00,32.0,29.0,-100.00,SW,235,1.0,3.0,88,-99.99,,,0.00,,2013-04-04 16:23:00,
2013-04-04 10:32:00,36.0,31.0,-100.00,North,355,0.0,1.0,82,-99.99,,,0.00,,2013-04-04 16:32:00,
2013-04-04 10:43:00,36.0,31.0,-100.00,North,355,0.0,1.0,82,-99.99,,,0.00,,2013-04-04 16:43:00,
2013-04-04 10:53:00,36.0,31.0,-100.00,North,355,0.0,1.0,82,-99.99,,,0.00,,2013-04-04 16:53:00,
2013-04-04 11:02:00,46.0,32.0,-100.00,NNW,335,1.0,2.0,58,-99.99,,,0.00,,2013-04-04 17:02:00,
2013-04-04 11:13:00,41.0,31.0,-100.00,NNE,30,1.0,1.0,69,-99.99,,,0.00,,2013-04-04 17:13:00,
2013-04-04 11:22:00,41.0,31.0,-100.00,NNE,30,1.0,1.0,69,-99.99,,,0.00,,2013-04-04 17:22:00,
2013-04-04 11:33:00,46.0,32.0,-100.00,NNW,335,1.0,2.0,58,-99.99,,,0.00,,2013-04-04 17:33:00,
2013-04-04 11:43:00,46.0,32.0,-100.00,NNW,335,1.0,2.0,58,-99.99,,,0.00,,2013-04-04 17:43:00,
2013-04-04 11:52:00,46.0,32.0,-100.00,NNW,335,1.0,2.0,58,-99.99,,,0.00,,2013-04-04 17:52:00,
2013-04-04 12:02:00,54.0,27.0,-100.00,WNW,295,1.0,3.0,35,-99.99,,,0.00,,2013-04-04 18:02:00,
2013-04-04 12:12:00,49.0,28.0,-100.00,NW,320,2.0,3.0,43,-99.99,,,0.00,,2013-04-04 18:12:00,
2013-04-04 12:22:00,49.0,28.0,-100.00,NW,320,2.0,3.0,43,-99.99,,,0.00,,2013-04-04 18:22:00,
2013-04-04 12:32:00,54.0,27.0,-100.00,WNW,295,1.0,3.0,35,-99.99,,,0.00,,2013-04-04 18:32:00,
2013-04-04 12:43:00,54.0,27.0,-100.00,WNW,295,1.0,3.0,35,-99.99,,,0.00,,2013-04-04 18:43:00,
2013-04-04 12:52:00,54.0,27.0,-100.00,WNW,295,1.0,3.0,35,-99.99,,,0.00,,2013-04-04 18:52:00,
2013-04-04 13:12:00,50.0,25.0,-100.00,SW,230,3.0,6.0,37,-99.99,,,0.00,,2013-04-04 19:12:00,
2013-04-04 13:22:00,50.0,25.0,-100.00,SW,230,3.0,6.0,37,-99.99,,,0.00,,2013-04-04 19:22:00,
2013-04-04 13:32:00,48.0,27.0,-100.00,SSW,200,9.0,11.0,43,-99.99,,,0.00,,2013-04-04 19:32:00,
2013-04-04 13:52:00,48.0,27.0,-100.00,SSW,200,9.0,11.0,43,-99.99,,,0.00,,2013-04-04 19:52:00,
2013-04-04 14:02:00,49.0,28.0,-100.00,SW,215,3.0,6.0,43,-99.99,,,0.00,,2013-04-04 20:02:00,
2013-04-04 14:12:00,47.0,28.0,-100.00,SW,225,13.0,16.0,49,-99.99,,,0.00,,2013-04-04 20:12:00,
2013-04-04 14:22:00,47.0,28.0,-100.00,SW,225,13.0,16.0,49,-99.99,,,0.00,,2013-04-04 20:22:00,
2013-04-04 14:32:00,49.0,28.0,-100.00,SW,215,3.0,6.0,43,-99.99,,,0.00,,2013-04-04 20:32:00,
2013-04-04 14:42:00,49.0,28.0,-100.00,SW,215,3.0,6.0,43,-99.99,,,0.00,,2013-04-04 20:42:00,
2013-04-04 14:52:00,49.0,28.0,-100.00,SW,215,3.0,6.0,43,-99.99,,,0.00,,2013-04-04 20:52:00,
2013-04-04 15:12:00,47.0,29.0,-100.00,SW,215,13.0,16.0,50,-99.99,,,0.00,,2013-04-04 21:12:00,
2013-04-04 15:22:00,47.0,29.0,-100.00,SW,215,13.0,16.0,50,-99.99,,,0.00,,2013-04-04 21:22:00,
2013-04-04 15:32:00,47.0,30.0,-100.00,SSW,210,20.0,24.0,50,-99.99,,,0.00,,2013-04-04 21:32:00,
2013-04-04 15:52:00,47.0,30.0,-100.00,SSW,210,20.0,24.0,50,-99.99,,,0.00,,2013-04-04 21:52:00,
2013-04-04 16:03:00,47.0,30.0,-100.00,SSW,210,20.0,24.0,50,-99.99,,,0.00,,2013-04-04 22:03:00,
2013-04-04 16:12:00,46.0,32.0,-100.00,SSW,210,17.0,21.0,59,-99.99,,,0.00,,2013-04-04 22:12:00,
2013-04-04 16:22:00,46.0,32.0,-100.00,SSW,210,17.0,21.0,59,-99.99,,,0.00,,2013-04-04 22:22:00,
2013-04-04 16:33:00,45.0,34.0,-100.00,SSW,195,9.0,19.0,63,-99.99,,,0.00,,2013-04-04 22:33:00,
2013-04-04 16:52:00,45.0,34.0,-100.00,SSW,195,9.0,19.0,63,-99.99,,,0.00,,2013-04-04 22:52:00,
2013-04-04 17:02:00,48.0,34.0,-100.00,NE,55,4.0,4.0,58,-99.99,,,0.00,,2013-04-04 23:02:00,
2013-04-04 17:12:00,47.0,34.0,-100.00,WNW,290,0.0,3.0,61,-99.99,,,0.00,,2013-04-04 23:12:00,
2013-04-04 17:22:00,47.0,34.0,-100.00,WNW,290,0.0,3.0,61,-99.99,,,0.00,,2013-04-04 23:22:00,
2013-04-04 17:31:00,48.0,34.0,-100.00,North,350,3.0,5.0,58,-99.99,,,-99.99,,2013-04-04 23:31:00,
2013-04-04 17:32:00,48.0,34.0,-100.00,NE,55,4.0,4.0,58,-99.99,,,0.00,,2013-04-04 23:32:00,
2013-04-04 17:42:00,48.0,34.0,-100.00,NE,55,4.0,4.0,58,-99.99,,,0.00,,2013-04-04 23:42:00,
2013-04-04 17:52:00,48.0,34.0,-100.00,NE,55,4.0,4.0,58,-99.99,,,0.00,,2013-04-04 23:52:00,
2013-04-04 18:02:00,50.0,32.0,-100.00,East,95,3.0,6.0,51,-99.99,,,0.00,,2013-04-05 00:02:00,
2013-04-04 18:12:00,48.0,34.0,-100.00,North,350,3.0,5.0,58,-99.99,,,-99.99,,2013-04-05 00:12:00,
2013-04-04 18:22:00,48.0,34.0,-100.00,North,350,3.0,5.0,58,-99.99,,,-99.99,,2013-04-05 00:22:00,
2013-04-04 18:52:00,50.0,32.0,-100.00,East,95,3.0,6.0,51,-99.99,,,0.00,,2013-04-05 00:52:00,
2013-04-04 19:01:00,46.0,31.0,-100.00,SW,215,7.0,11.0,56,-99.99,,,0.00,,2013-04-05 01:01:00,
2013-04-04 19:12:00,46.0,34.0,-100.00,SSE,155,1.0,4.0,61,-99.99,,,0.00,,2013-04-05 01:12:00,
2013-04-04 19:22:00,46.0,34.0,-100.00,SSE,155,1.0,4.0,61,-99.99,,,0.00,,2013-04-05 01:22:00,
2013-04-04 19:32:00,46.0,31.0,-100.00,SW,215,7.0,11.0,56,-99.99,,,0.00,,2013-04-05 01:32:00,
2013-04-04 19:42:00,46.0,31.0,-100.00,SW,215,7.0,11.0,56,-99.99,,,0.00,,2013-04-05 01:42:00,
2013-04-04 19:52:00,46.0,31.0,-100.00,SW,215,7.0,11.0,56,-99.99,,,0.00,,2013-04-05 01:52:00,
2013-04-04 20:01:00,45.0,33.0,-100.00,SSW,200,12.0,19.0,62,-99.99,,,0.00,,2013-04-05 02:01:00,
2013-04-04 20:12:00,45.0,33.0,-100.00,SSW,200,8.0,12.0,62,-99.99,,,0.00,,2013-04-05 02:12:00,
2013-04-04 20:22:00,45.0,33.0,-100.00,SSW,200,8.0,12.0,62,-99.99,,,0.00,,2013-04-05 02:22:00,
2013-04-04 20:32:00,45.0,33.0,-100.00,SSW,200,12.0,19.0,62,-99.99,,,0.00,,2013-04-05 02:32:00,
2013-04-04 20:42:00,45.0,33.0,-100.00,SSW,200,12.0,19.0,62,-99.99,,,0.00,,2013-04-05 02:42:00,
2013-04-04 20:52:00,45.0,33.0,-100.00,SSW,200,12.0,19.0,62,-99.99,,,0.00,,2013-04-05 02:52:00,
2013-04-04 21:02:00,43.0,33.0,-100.00,South,180,3.0,5.0,67,-99.99,,,0.00,,2013-04-05 03:02:00,
2013-04-04 21:12:00,46.0,33.0,-100.00,SSW,195,5.0,9.0,60,-99.99,,,0.00,,2013-04-05 03:12:00,
2013-04-04 21:22:00,46.0,33.0,-100.00,SSW,195,5.0,9.0,60,-99.99,,,0.00,,2013-04-05 03:22:00,
2013-04-04 21:32:00,43.0,33.0,-100.00,South,180,3.0,5.0,67,-99.99,,,0.00,,2013-04-05 03:32:00,
2013-04-04 21:43:00,43.0,33.0,-100.00,South,180,3.0,5.0,67,-99.99,,,0.00,,2013-04-05 03:43:00,
2013-04-04 21:53:00,43.0,33.0,-100.00,South,180,3.0,5.0,67,-99.99,,,0.00,,2013-04-05 03:53:00,
2013-04-04 22:02:00,39.0,35.0,-100.00,SW,215,6.0,8.0,85,-99.99,,,0.00,,2013-04-05 04:02:00,
2013-04-04 22:12:00,39.0,34.0,-100.00,SSW,210,9.0,16.0,81,-99.99,,,0.00,,2013-04-05 04:12:00,
2013-04-04 22:22:00,39.0,34.0,-100.00,SSW,210,9.0,16.0,81,-99.99,,,0.00,,2013-04-05 04:22:00,
2013-04-04 22:32:00,39.0,35.0,-100.00,SW,215,6.0,8.0,85,-99.99,,,0.00,,2013-04-05 04:32:00,
2013-04-04 22:42:00,39.0,35.0,-100.00,SW,215,6.0,8.0,85,-99.99,,,0.00,,2013-04-05 04:42:00,
2013-04-04 22:52:00,39.0,35.0,-100.00,SW,215,6.0,8.0,85,-99.99,,,0.00,,2013-04-05 04:52:00,
2013-04-04 23:12:00,38.0,36.0,-100.00,West,270,3.0,10.0,92,-99.99,,,0.00,,2013-04-05 05:12:00,
2013-04-04 23:22:00,38.0,36.0,-100.00,West,270,3.0,10.0,92,-99.99,,,0.00,,2013-04-05 05:22:00,
2013-04-04 23:32:00,38.0,36.0,-100.00,NE,50,2.0,3.0,93,-99.99,,,0.00,,2013-04-05 05:32:00,
2013-04-04 23:42:00,38.0,36.0,-100.00,NE,50,2.0,3.0,93,-99.99,,,0.00,,2013-04-05 05:42:00,
2013-04-04 23:52:00,38.0,36.0,-100.00,NE,50,2.0,3.0,93,-99.99,,,0.00,,2013-04-05 05:52:00,